Погода в Калачинске

Погода в Калачинске : погода сейчас, прогноз погоды и архив. Всё, что Вы хотите узнать о погоде в Калачинске!

Хотите узнать прогноз погоды в Калачинске? Тогда Вам сюда: Погода в Калачинске

Поиск расширенной информации на нашем сайте:

Другие новости

Новости СМИ2

Главная страница сайта

Новости сайта

03.07.2017

Напоминаем, что на нашем специализированном сайте Метеоцентр.Азия вы можете получить высокодетализированные автоматические прогнозы погоды по пунктам России, СНГ и мира в авиационном формате (включающие направление и скорость ветра, видимость, явления погоды, количество и форму облачности, нижнюю и верхнюю границу облачности).


Погода в Калачинске - сегодня

Время (UTC), дата Ветер
(°,м/с) 
Видим.   Явления Облачность Т
(°С)
Тd
(°С)
f(%) Тe
(°С)
Pmin
(гПа)
dP
(гПа)
Po
(мм)
O2
(г/м3)
Тmin Tmax R s Состояние
почвы
15 07.10.18 240 (ЮЗ) 4000 м  слаб. ливневой дождь  10/10 600 м кучево-дожд. 
[Cb cap]
+7.6 +0.6 61 +6  1020.9  1.3  756  296    +11.7  0.0     
21 07.10.18 200 (Ю) 10 км    ясно 
+5.4 -3 55 +4  1019.9  -1  755  299           
03 08.10.18 240 (ЮЗ) 7-12{12}  20000 м  {ливн. осадки}  10/8 600 м кучево-дожд., верхняя 
[Cb cap|Ci fib]
+7.9 -0.5 55 +6  1020.9  1.2  756  296  +5.2    0.0    сухая 
15 08.10.18 170 (Ю) 4000 м    10/10 600 м кучево-дожд. 
[Cb cap]
+11.7 +6.7 71 +11  1024.9  -0.2  759  292    +13.7       
21 08.10.18 170 (Ю) 10 км    10/0 средняя, верхняя 
[Ac As|Ci fib]
+10.3 +5.9 74 +9  1020.9  -2  756  292           
03 09.10.18 240 (ЮЗ) 20000 м    10/0 верхняя 
[Ci fib]
+9.1 +4.1 71 +8  1018.2  -0.9  754  293  +7.1        сухая 
21 09.10.18 250 (З) 10 км    8/0 средняя 
[Ac As]
+6.7 -0.6 60 +4  1018.3  1.2  754  296           
03 10.10.18 280 (З) 20000 м    10/10 600 м кучево-дожд. 
[Cb cap]
+4.4 +0.2 74 +2  1023.2  2.7  757  300  +2        сухая 
09 10.10.18 270 (З) 20000 м    10/9 600 м кучево-дожд., средняя 
[Cb cap|Ac trans]
+5.8 +0.7 70 +4  1024.4  0.1  758  299           
21 10.10.18 180 (Ю) 10 км    6/0 средняя 
[Ac As]
-0.7 -1.9 92 1022.6  -1.2  756  306           
03 11.10.18 170 (Ю) 20000 м    10/0 средняя 
[Ac und]
+2.3 +0.1 85 +1  1016.4  -3.6  752  300  -1        сухая 
09 11.10.18 190 (Ю) 20000 м    9/4 600 м кучево-дожд., средняя 
[Cb cap|Ac und]
+13.4 +1.3 44 +13  1009.3  -3.2  747  287           
15 11.10.18 200 (Ю) 4{12}  10 км    10/10 1000 м 
[Sc]
+13.4 -0.7 38 +13  1005.3  -1.3  744  286    +14.2       
21 11.10.18 180 (Ю) 10 км    10/0 средняя 
[Ac und]
+11.6 -2.2 38 +11  1001.5  -3.1  741  287           
03 12.10.18 190 (Ю) 8000 м  слаб. ливневой дождь  10/10 200 м кучево-дожд. 
[Cb cap|Ac und]
+7.1 +4.6 84 +5  1000.6  -0.5  740  290  +6.5    0.0    сухая 
09 12.10.18 210 (ЮЗ) 20000 м  {ливн. осадки}  10/10 600 м кучево-дожд., верхняя 
[Cb cap|Ci fib]
+8.4 +0.4 57 +7  1000.9  0.2  741  289           
21 12.10.18 250 (З) 10 км    10/10 600 м кучево-дожд. 
[Cb cap]
+0.7 +0.1 96 -1  1001.4  -0.2  741  298           
03 13.10.18 290 (З) 5{10}  20000 м    10/10 600 м кучево-дожд. 
[Cb cap]
+1.7 -0.2 87 -1  1002.8  1.3  742  297  +0        сухая 
09 13.10.18 270 (З) 20000 м    10/6 600 м кучево-дожд., верхняя 
[Cb cap|Ci fib]
+3.2 -2.9 64 +2  1004  0.8  743  296           
21 13.10.18 200 (Ю) 10 км    ясно 
-4.6 -8.1 76 -6  1010.2  1.1  747  307           
03 14.10.18 010 (С) 20000 м    10/3 600 м средняя, верхняя 
[Cu hum|Ac trans|Ci fib]
-5.8 -7.3 89 -5  1011.8  1.1  749  309  -7.4        замёрзшая 
09 14.10.18 220 (ЮЗ) 20000 м    10/8 600 м кучево-дожд., верхняя 
[Cb cap|Ci fib]
+3.5 -5 54 +2  1014.2  750  299           
21 14.10.18 150 (ЮВ) 1{11}  10 км    ясно 
-2.6 -3.2 96 -2  1018.5  0.6  753  307           
03 15.10.18 тихо ()   3000 м  дымка  10/8 600 м кучево-дожд., верхняя 
[Cb cap|Ci fib]
-3.1 -4.1 93 -3  1020.3  1.2  755  308  -4.7        замёрзшая 
09 15.10.18 110 (В) 20000 м    10/8 600 м кучево-дожд., верхняя 
[Cb cap|Ci fib]
+5 -2.6 58 +3  1019.5  -0.6  754  299           
Время (UTC), дата Ветер
(°,м/с) 
Видим.   Явления Облачность Т
(°С)
Тd
(°С)
f(%) Тe
(°С)
Pmin
(гПа)
dP
(гПа)
Po
(мм)
O2
(г/м3)
Тmin Tmax R s Состояние
почвы

Для получения пояснительной информации подведите курсор к названию столбца.

ПОГОДА в Калачинске - архив

Всё, что Вы хотите узнать о погоде в Калачинске - удобно и подробно!

Выберите нужную дату (начиная с 1 января 2015* года) и нажмите кнопку "Найти".
Будут отображены архивные сводки погоды по пункту Калачинск, начиная с указанной даты.


Отображать данные в формате CSV (для использования в таблицах Excel)


Внимание! Наш архив погоды предназначен исключительно для личного некоммерческого использования в познавательных целях. Если Вам необходимы официальные справки о состоянии погоды (для производственных, юридических, коммерческих и т.п. целей), обращайтесь в органы Росгидромета.

*Примечание: данная дата относится к архиву по метеостанциям СССР (Россия, СНГ, Балтия).
Архив по метеостанциям Зарубежной Европы и Азии (кроме Китая) хранится 10 дней, по другим регионам земного шара (Китай, Африка, Америка, Австралия, Океания) - 1 день.

Калачинск - район местоположения метеостанции


Название, широта, долгота, высота метеостанции:
Калачинск 55°ш. 74.6°д. 110 м над ур. моря [Российская Федерация]

Дополнительная информация

В oтличие oт бoльшинства пoгoдных сайтoв мы публикуем пoдрoбную метеoинфoрмацию в детальнoм прoфессиoнальнoм фoрмате.

Характеристики температуры и влажнoсти вoздуха измеряются на высoте 2 м в тени вдали oт зданий и деревьев.
Скoрoсть ветра измеряется на высoте 10 м (на урoвне рoста челoвека скoрoсть ветра ниже в 1.5-2 раза). Если метеoстанция нахoдится в гoрoде или в лесу, тo скoрoсть ветра занижена на 2-4 м/с пo сравнению с oткрытым местoм. Скoрoсть ветра над акватoриями крупных рек и oзёр, а также на вершинах хoлмoв на 2-5 м/с выше, чем в oбычных услoвиях.
Атмoсфернoе давление в разных тoчках местнoсти мoжет значительнo oтличаться oт давления на метеoстанции, в зависимoсти oт услoвий рельефа (при пoдъёме на 10 м давление пoнижается примернo на 1 мм рт.ст.).